Regional Weather Roundup
Issued by NWS

Home | Current Version | Previous Version | Graphics & Text | Print | Product List | Glossary Off
Versions: 1 2 3 4 5 6 7 8 9 10 11 12 13 14 15 16 17 18 19 20 21 22 23 24 25 26 27 28 29 30 31 32 33 34 35 36 37 38 39 40 41 42 43 44 45 46 47 48 49 50

000
ASUS43 KDMX 191806
RWRIA

WEATHER ROUNDUP FOR IOWA
NATIONAL WEATHER SERVICE DES MOINES IA
1200 PM CST THU JAN 19 2017

NOTE: "FAIR" INDICATES FEW OR NO CLOUDS BELOW 12,000 FEET WITH NO
SIGNIFICANT WEATHER AND/OR OBSTRUCTIONS TO VISIBILITY.

* - THESE STATIONS ARE NOT NWS STATIONS...THUS NOT UNDER NWS
QUALITY CONTROL.  THEY ALSO DO NOT REPORT WEATHER SUCH
AS PRECIPITATION OR FOG.

IAZ001>003-012>014-020>022-031>034-043>046-191900-
   NORTHWEST IOWA

CITY           SKY/WX    TMP DP  RH WIND       PRES   REMARKS
CARROLL *      CLOUDY    36  36 100 SE10      29.77F FOG     WCI  28
CHEROKEE *     CLOUDY    38  37  98 S8        29.75F FOG     WCI  32
DENISON *      CLOUDY    39  39 100 S8        29.73F WCI  34
LE MARS *      CLOUDY    39  37  93 S13G20    29.73F FOG     WCI  32
ORANGE CITY *  CLOUDY    37  37 100 S13       29.72F FOG     WCI  29
SHELDON *      CLOUDY    37  37 100 S12       29.71F FOG     WCI  30
SIOUX CITY     FOG       39  37  92 SE10      29.72F VSB 1   WCI  32
6HR MIN TEMP:  32; 6HR MAX TEMP:  38;

SPENCER        CLOUDY    37  35  92 S7        29.75F WCI  32
6HR MIN TEMP:  32; 6HR MAX TEMP:  37;

STORM LAKE *   CLOUDY    36  36 100 SE12      29.75F FOG     WCI  27
$$

IAZ055>058-069>071-079>083-090>094-191900-
   SOUTHWEST IOWA

CITY           SKY/WX    TMP DP  RH WIND       PRES   REMARKS
ATLANTIC *     CLOUDY    39  37  93 CALM      29.77F FOG
AUDUBON *      CLOUDY    39  37  93 S5        29.78F
CLARINDA *     CLOUDY    41  41 100 CALM      29.78F FOG
COUNCIL BLFS * CLOUDY    39  39 100 SE7       29.75F FOG     WCI  34
CRESTON *      MIX PCPN  39  39 100 SE7       29.78F VSB<1/4 WCI  34
HARLAN  *      CLOUDY    39  39 100 S7        29.79F FOG     WCI  34
LAMONI         FOG       41  41 100 SE5       29.77F VSB<1/4
6HR MIN TEMP:  37; 6HR MAX TEMP:  41;

RED OAK *      CLOUDY    41  41 100 CALM      29.77F FOG
SHENANDOAH *   FOG       41  41 100 CALM      29.77F VSB 1/4
$$

IAZ047>049-059>061-072>074-084-191900-
   CENTRAL IOWA

CITY           SKY/WX    TMP DP  RH WIND       PRES   REMARKS
AMES           CLOUDY    37  37 100 E8        29.80F FOG     WCI  31
6HR MIN TEMP:  31; 6HR MAX TEMP:  37; 6HR PCP: TRACE;

ANKENY *       CLOUDY    37  37 100 E6        29.80F FOG     WCI  33
BOONE *        CLOUDY    37  37 100 E8        29.78F FOG     WCI  31
CHARITON *     FOG       37  37 100 SE5       29.79F VSB 1   WCI  34
DES MOINES     CLOUDY    39  37  92 E3        29.79F FOG
6HR MIN TEMP:  32; 6HR MAX TEMP:  39; 6HR PCP:  0.04;

GRINNELL*      FOG       34  33  99 E8        29.83F VSB 1   WCI  27
KNOXVILLE *    FOG       36  36 100 E9        29.79F VSB 3/4 WCI  29
MARSHALLTOWN   CLOUDY    35  35 100 E9        29.82F FOG     WCI  28
6HR MIN TEMP:  30; 6HR MAX TEMP:  35; 6HR PCP: TRACE;

NEWTON *       PTSUNNY   36  36 100 E8        29.80F FOG     WCI  29
PELLA *        LGT RAIN  35  35  99 E7        29.82F VSB 3/4 WCI  29
PERRY *        CLOUDY    38  37  98 E3        29.79F FOG
$$

IAZ004>006-015-016-023>025-035-036-191900-
   NORTH CENTRAL IOWA

CITY           SKY/WX    TMP DP  RH WIND       PRES   REMARKS
ALGONA *       CLOUDY    36  36 100 SE9       29.78F WCI  29
CLARION *      CLOUDY    36  36 100 S12       29.80F WCI  27
ESTHERVILLE    CLOUDY    35  35 100 S12       29.75F WCI  27
6HR MIN TEMP:  30; 6HR MAX TEMP:  35;

FORT DODGE *   CLOUDY    37  34  87 SE6       29.79F WCI  33
MASON CITY     FOG       31  31 100 SE7       29.82F VSB 1   WCI  24
6HR MIN TEMP:  30; 6HR MAX TEMP:  31;

FOREST CITY *  CLOUDY    34  34 100 SE9       29.80F WCI  26
WEBSTER CITY * CLOUDY    36  36 100 SE9       29.78F WCI  29
IOWA FALLS *   CLOUDY    34  33  97 SE6       29.82F FOG     WCI  29
$$

IAZ007>011-017>019-026>030-037>042-050>054-066-191900-
   NORTHEAST IOWA

CITY           SKY/WX    TMP DP  RH WIND       PRES   REMARKS
CEDAR RAPIDS   CLOUDY    36  35  96 E8        29.84F FOG     WCI  30
6HR MIN TEMP:  28; 6HR MAX TEMP:  36; 6HR PCP:  0.01;

CHARLES CITY * LGT RAIN  32  32 100 SE8       29.84F WCI  25
CLINTON *      CLOUDY    38  37  97 E9        29.90F FOG     WCI  31
DECORAH *      FOG       32  32 100 VRB7G14   29.85S VSB 1/2 WCI  26
DUBUQUE        CLOUDY    36  36 100 E5        29.87F FOG     WCI  32
6HR MIN TEMP:  29; 6HR MAX TEMP:  36;

MONTICELLO *   CLOUDY    37  37 100 SE5       29.86F FOG     WCI  34
OELWEIN *      LGT SNOW  34  34 100 SE7       29.85F WCI  28
WATERLOO       CLOUDY    34  33  96 SE6       29.85F FOG     WCI  29
6HR MIN TEMP:  31; 6HR MAX TEMP:  34;

$$

IAZ064-065-067-068-078-191900-
   EAST CENTRAL IOWA

CITY           SKY/WX    TMP DP  RH WIND       PRES   REMARKS
DAVENPORT      CLOUDY    39  36  89 E9        29.88F FOG     WCI  33
6HR MIN TEMP:  29; 6HR MAX TEMP:  39;

IOWA CITY      LGT RAIN  39  36  89 SE8       29.88F FOG     WCI  33
6HR MIN TEMP:  28; 6HR MAX TEMP:  39; 6HR PCP: TRACE;

MUSCATINE *    CLOUDY    39  37  93 SE6       29.88F FOG     WCI  35
QUAD CITIES    CLOUDY    40  36  86 E7        29.88F FOG
6HR MIN TEMP:  25; 6HR MAX TEMP:  40;

$$

IAZ062-063-075>077-085>089-095>099-191900-
   SOUTHEAST IOWA

CITY           SKY/WX    TMP DP  RH WIND       PRES   REMARKS
BURLINGTON     LGT RAIN  39  38  96 E3        29.85F FOG
6HR MIN TEMP:  33; 6HR MAX TEMP:  39; 6HR PCP:  0.04;

FAIRFIELD *    FOG       37  37 100 E8        29.83F VSB 1/2 WCI  31
FORT MADISON * LGT RAIN  39  39 100 E5        29.85F VSB 1
KEOKUK *       LGT RAIN  41  41 100 E8        29.83F VSB 3/4
OSKALOOSA *    LGT RAIN  35  35  99 E7        29.83F VSB 1/4 WCI  29
OTTUMWA        FOG       38  36  92 E8        29.82F VSB 3/4 WCI  32
6HR MIN TEMP:  32; 6HR MAX TEMP:  38; 6HR PCP:  0.03;

WASHINGTON *   LGT RAIN  37  36  93 E5        29.86F VSB 1   WCI  34
$$

ABBREVIATIONS USED IN REMARKS
   TC - TEMPERATURES IN CELSIUS
  WCI - WIND CHILL INDEX
   HX - HEAT INDEX
  VSB - VISIBILITY
$$




USA.gov is the U.S. government's official web portal to all federal, state and local government web resources and services.